This demonstration page uses our WeatherBlox Daily Observations layout. Learn more.

Left ArrowRight Arrow

39.29038, -76.61219

Hourly Observations for December 8, 2020

Temp ( °F °C ) Dew Point ( °F °C ) Humidity (%) Winds ( mph kmh ) Pressure ( in mb ) Visibility ( mi km ) Precip ( " mm )
2:54 am 02:54 Clear 32 0 18 -7.8 56 56 WNW 7 11 29.78 1009 10 16 0.00 0.00
3:54 am 03:54 Mostly Clear 32 0 18 -7.8 56 56 WNW 13 20 29.78 1009 10 16 0.00 0.00
4:54 am 04:54 Partly Cloudy 32 0 18 -7.8 56 56 WNW 10 17 29.79 1009 10 16 0.00 0.00
5:54 am 05:54 Mostly Cloudy 33 0.6 19 -7.2 56 56 WNW 9 15 29.80 1009 10 16 0.00 0.00
6:54 am 06:54 Partly Cloudy 31 -0.6 19 -7.2 61 61 W 8 13 29.83 1010 10 16 0.00 0.00
7:54 am 07:54 Mostly Sunny 31 -0.6 20 -6.7 64 64 W 5 7 29.85 1011 10 16 0.00 0.00
8:54 am 08:54 Mostly Sunny 36 2.2 20 -6.7 52 52 W 10 17 29.86 1011 10 16 0.00 0.00
9:54 am 09:54 Mostly Sunny 39 3.9 19 -7.2 45 45 NW 12 19 29.88 1012 10 16 0.00 0.00
10:54 am 10:54 Mostly Sunny 41 5 18 -7.8 39 39 NW 9 15 29.88 1012 10 16 0.00 0.00
11:54 am 11:54 Mostly Sunny 43 6.1 16 -8.9 34 34 NW 15 24 29.86 1011 10 16 0.00 0.00
12:54 pm 12:54 Mostly Sunny 45 7.2 18 -7.8 34 34 WNW 14 22 29.85 1011 10 16 0.00 0.00
1:54 pm 13:54 Mostly Sunny 46 7.8 18 -7.8 32 32 NW 16 26 29.85 1011 10 16 0.00 0.00
2:54 pm 14:54 Mostly Sunny 46 7.8 19 -7.2 34 34 WNW 20 31 29.85 1011 10 16 0.00 0.00
3:54 pm 15:54 Mostly Sunny 45 7.2 20 -6.7 37 37 W 14 22 29.86 1011 10 16 0.00 0.00
4:54 pm 16:54 Mostly Clear 42 5.6 21 -6.1 43 43 WNW 15 24 29.88 1012 10 16 0.00 0.00
5:54 pm 17:54 Clear 40 4.4 21 -6.1 47 47 WNW 12 19 29.90 1013 10 16 0.00 0.00
6:54 pm 18:54 Clear 38 3.3 22 -5.6 52 52 W 9 15 29.93 1014 10 16 0.00 0.00
7:54 pm 19:54 Clear 36 2.2 22 -5.6 57 57 W 12 19 29.93 1014 10 16 0.00 0.00
8:54 pm 20:54 Mostly Clear 35 1.7 22 -5.6 59 59 W 10 17 29.94 1014 10 16 0.00 0.00
9:54 pm 21:54 Mostly Clear 34 1.1 21 -6.1 59 59 W 8 13 29.96 1014 10 16 0.00 0.00
10:54 pm 22:54 Mostly Clear 33 0.6 20 -6.7 58 58 W 8 13 29.97 1015 10 16 0.00 0.00
11:54 pm 23:54 Mostly Clear 32 0 20 -6.7 61 61 WSW 7 11 29.96 1015 10 16 0.00 0.00

Powered by AerisWeather